Regional Weather Roundup
Issued by NWS Austin/San Antonio, TX

Home | Current Version | Previous Version | Text Only | Print | Product List | Glossary On
Versions: 1 2 3 4 5 6 7 8 9 10 11 12 13 14 15 16 17 18 19 20 21 22 23 24 25 26 27 28 29 30 31 32 33 34 35 36 37 38 39 40 41 42 43 44 45 46 47 48 49 50
000
ASUS44 KEWX 270002
RWREWX
SOUTH TEXAS REGIONAL WEATHER ROUNDUP
NATIONAL WEATHER SERVICE AUSTIN/SAN ANTONIO TX
700 PM CDT FRI MAY 26 2017

NOTE: "FAIR" INDICATED FEW OR NO CLOUDS BELOW 12,000 FEET WITH NO
SIGNIFICANT WEATHER AND/OR OBSTRUCTIONS TO VISIBILITY.

* - THESE STATIONS ARE NOT NWS OR FAA STATIONS...AND ARE NOT SUBJECT
    TO NWS AND FAA QUALITY CONTROL.

TXZ171-172-183>190-270100-
TEXAS HILL COUNTRY AND EDWARDS PLATEAU

CITY           SKY/WX    TMP DP  RH WIND       PRES   REMARKS
JUNCTION       PTSUNNY   96  66  37 S13       29.80S HX  99
6HR MIN TEMP:  88; 6HR MAX TEMP:  99;

*LLANO         SUNNY     91  73  55 SE10      29.84S HX 100
BURNET         SUNNY     86  70  58 S7        29.85S HX  90
6HR MIN TEMP:  78; 6HR MAX TEMP:  87;

*HORSESHOE BAY NOT AVBL
*KERRVILLE     CLOUDY    85  73  67 SE6       29.86S HX  92
6HR MIN TEMP:  76; 6HR MAX TEMP:  92;

*FREDERICKSBRG SUNNY     86  69  56 S10       29.85S
*ROCKSPRINGS   PTSUNNY   88  70  55 S8        29.90R HX  92
*BOERNE STAGE  MOSUNNY   84  70  61 S9        29.85S
*CASTROVILLE   SUNNY     90  70  51 SE3       29.82S HX  95
HONDO          CLOUDY    89  73  59 S5        29.81F HX  97
6HR MIN TEMP:  83; 6HR MAX TEMP:  92;

*UVALDE        CLOUDY    86  74  68 CALM      29.81S HX  94
6HR MIN TEMP:  83; 6HR MAX TEMP:  90;

DEL RIO        CLOUDY    88  72  58 E8        29.77F HX  94
6HR MIN TEMP:  87; 6HR MAX TEMP:  93;

LAUGHLIN AFB   NOT AVBL
CARRIZO SPRGS  SUNNY     97  70  41 E5        29.75S HX 103
*EAGLE PASS    NOT AVBL
$$

TXZ173-191>194-202-209-217>225-228-270100-
CENTRAL AND SOUTH CENTRAL TEXAS

CITY           SKY/WX    TMP DP  RH WIND       PRES   REMARKS
GEORGETOWN     NOT AVBL
AUSTIN/BERGSTM MOSUNNY   90  72  55 S9        29.79F HX  97
6HR MIN TEMP:  83; 6HR MAX TEMP:  93;

AUSTIN/MABRY   MOSUNNY   89  71  55 S3        29.81F HX  95
6HR MIN TEMP:  80; 6HR MAX TEMP:  92;

*AUSTIN/EXEC   FAIR      86  73  66 S5        29.81F HX  93
*LAGO VISTA    MOSUNNY   87  72  60 S3        29.84F HX  93
6HR MIN TEMP:  79; 6HR MAX TEMP:  88;

SAN MARCOS     MOSUNNY   88  72  58 S9        29.81F HX  94
6HR MIN TEMP:  81; 6HR MAX TEMP:  91;

NEW BRAUNFELS  MOSUNNY   89  72  56 S8        29.79F HX  96
6HR MIN TEMP:  83; 6HR MAX TEMP:  94;

RANDOLPH AFB   MOSUNNY   89  72  57 S10       29.80F HAZE    HX  95
6HR MIN TEMP:  80; 6HR MAX TEMP:  92; 6HR PCP: TRACE;

PT SAN ANTONIO NOT AVBL
SAN ANTONIO    PTSUNNY   89  71  55 SE10      29.81F HX  95
6HR MIN TEMP:  81; 6HR MAX TEMP:  91;

STINSON FIELD  MOSUNNY   91  72  53 SE6       29.78F HX  98
6HR MIN TEMP:  85; 6HR MAX TEMP:  93;

*LA GRANGE     MOSUNNY   87  76  70 SE9       29.81S HX  97
6HR MIN TEMP:  87; 6HR MAX TEMP:  93;

*GIDDINGS      MOSUNNY   86  73  64 S7        29.83S HX  92
6HR MIN TEMP:  84; 6HR MAX TEMP:  90;

*GONZALES      MOSUNNY   88  77  70 SE14      29.81S HX 101
6HR MIN TEMP:  88; 6HR MAX TEMP:  92;

$$

TXZ163>164-176>182-195>201-210>213-226-227-235-270100-
SOUTHEAST TEXAS

CITY           SKY/WX    TMP DP  RH WIND       PRES   REMARKS
COLLEGE STN    MOSUNNY   87  74  64 S13       29.82F HX  95
6HR MIN TEMP:  85; 6HR MAX TEMP:  91;

*BRYAN         SUNNY     86  74  66 S13G18    29.84S HX  94
6HR MIN TEMP:  85; 6HR MAX TEMP:  91;

*CALDWELL      NOT AVBL
*CROCKETT      MOSUNNY   86  73  66 S14       29.86S HX  93
*BRENHAM       MOSUNNY   87  74  64 S18       29.84S HX  95
6HR MIN TEMP:  87; 6HR MAX TEMP:  91;

HUNTSVILLE     MOSUNNY   87  71  58 S7        29.85S HX  93
6HR MIN TEMP:  85; 6HR MAX TEMP:  91;

CONROE         CLOUDY    85  74  69 S14       29.86S HX  92
6HR MIN TEMP:  85; 6HR MAX TEMP:  92;

HOUSTON BUSH   CLOUDY    85  74  69 S13       29.86S HX  92
6HR MIN TEMP:  85; 6HR MAX TEMP:  91;

HOUSTON HOBBY  CLOUDY    82  74  76 S13       29.87S
6HR MIN TEMP:  82; 6HR MAX TEMP:  88;

*HOUSTON SW AP CLOUDY    81  74  79 S10       29.88S
6HR MIN TEMP:  81; 6HR MAX TEMP:  86;

PEARLAND       CLOUDY    84  74  71 S13       29.89R HX  91
6HR MIN TEMP:  84; 6HR MAX TEMP:  89;

HOUSTON HOOKS  CLOUDY    85  73  67 S9G17     29.86S HX  91
6HR MIN TEMP:  85; 6HR MAX TEMP:  90;

ELLINGTON FLD  PTSUNNY   82  73  74 SE9       29.90S
SUGAR LAND     CLOUDY    84  75  74 S12       29.86S HX  92
6HR MIN TEMP:  84; 6HR MAX TEMP:  89;

*HOUSTON EXEC  CLOUDY    84  75  74 S13       29.87S HAZE    HX  92
*CLEVELAND MUN CLOUDY    82  74  79 S10       29.89R
6HR MIN TEMP:  82; 6HR MAX TEMP:  90;

*WHARTON       CLOUDY    82  73  73 SE12      29.86S
*COLUMBUS      PTSUNNY   83  74  73 S9        29.85F HX  90
6HR MIN TEMP:  83; 6HR MAX TEMP:  87;

*EAGLE LAKE    MOCLDY    84  77  79 S13       29.84F HX  94
6HR MIN TEMP:  84; 6HR MAX TEMP:  87;

$$

TXZ214>216-236>238-270100-
THE UPPER TEXAS COAST

CITY           SKY/WX    TMP DP  RH WIND       PRES   REMARKS
*ORANGE        CLOUDY    81  75  81 S12G17    29.92S
6HR MIN TEMP:  81; 6HR MAX TEMP:  85;

PORT ARTHUR    PTSUNNY   81  73  76 S13       29.90S
6HR MIN TEMP:  81; 6HR MAX TEMP:  87;

GALVESTON      MOSUNNY   83  77  82 S15       29.89S HX  92
6HR MIN TEMP:  83; 6HR MAX TEMP:  86;

ANGLETON       CLOUDY    83  76  79 S15       29.88R HX  91
6HR MIN TEMP:  83; 6HR MAX TEMP:  88;

*BAY CITY      CLOUDY    83  76  80 SE14      29.86S HX  90
PALACIOS       CLOUDY    81  76  84 SE21      29.85S
6HR MIN TEMP:  81; 6HR MAX TEMP:  85;

$$

TXZ229>234-239>247-270100-
TEXAS COASTAL BEND AND RIO GRANDE PLAINS

CITY           SKY/WX    TMP DP  RH WIND       PRES   REMARKS
VICTORIA       CLOUDY    84  75  74 S16       29.84S HX  92
6HR MIN TEMP:  84; 6HR MAX TEMP:  89;

*BEEVILLE      PTSUNNY   87  79  76 SE13G20   29.81S HX 101
6HR MIN TEMP:  87; 6HR MAX TEMP:  92;

ROCKPORT       PTSUNNY   83  76  79 SE14G22   29.82R HX  91
6HR MIN TEMP:  83; 6HR MAX TEMP:  88;

*PORT ARANSAS  MOSUNNY   82  77  84 SE14G21   29.82S
6HR MIN TEMP:  82; 6HR MAX TEMP:  86;

*PORT LAVACA   CLOUDY    81  79  94 SE12      29.85R
*INGLESIDE     MOSUNNY   85  78  80 SE17G23   29.82R HX  96
CORPUS CHRISTI PTSUNNY   85  78  80 SE17G26   29.81R HX  96
6HR MIN TEMP:  85; 6HR MAX TEMP:  90;

CORPUS NAS     PTSUNNY   84  79  85 SE20      29.81R HX  96
*ROBSTOWN      SUNNY     88  78  70 SE15G22   29.80R HX 101
ALICE          SUNNY     89  77  67 SE17      29.77S HX 101
6HR MIN TEMP:  89; 6HR MAX TEMP:  97;

KINGSVILLE NAS SUNNY     87  80  79 SE18G25   29.78S HX 103
6HR MIN TEMP:  87; 6HR MAX TEMP:  97;

COTULLA        MOSUNNY  100  69  36 SE6       29.74F HX 106
6HR MIN TEMP:  91; 6HR MAX TEMP: 101;

*FAITH RANCH   SUNNY     95  72  46 SE6G12    29.76F HX 103
LAREDO         SUNNY     97  74  47 SW3       29.74F HX 108
6HR MIN TEMP:  89; 6HR MAX TEMP:  99;

$$

TXZ248>255-270100-
DEEP SOUTH TEXAS

CITY           SKY/WX    TMP DP  RH WIND       PRES   REMARKS
BROWNSVILLE    PTSUNNY   87  78  74 SE16      29.81R HX 100
6HR MIN TEMP:  87; 6HR MAX TEMP:  95;

PORT ISABEL    PTSUNNY   86  78  77 SE18      29.80R HX  98
6HR MIN TEMP:  86; 6HR MAX TEMP:  93;

*SOUTH PADRE   NOT AVBL
HARLINGEN      MOSUNNY   89  78  70 S20G26    29.77R HX 103
6HR MIN TEMP:  89; 6HR MAX TEMP:  98;

*HEBBRONVILLE  PTSUNNY   98  68  38 SE10G22   29.77F HX 103
MCALLEN        PTSUNNY   94  76  55 SE17G28   29.76R HX 106
6HR MIN TEMP:  94; 6HR MAX TEMP: 102;

*WESLACO       MOSUNNY   90  76  64 S15G23    29.76R HX 101
6HR MIN TEMP:  90; 6HR MAX TEMP:  98;

FALFURRIA


USA.gov is the U.S. government's official web portal to all federal, state and local government web resources and services.